ROVUS EGLC-EDDH

Flight info

Callsign ROVUS
Flight time 1h 4m
Altitude 39000
Route ODUKU M84 CLN P44 SOMVA DCT MAVAS DCT GASTU DCT OSTOR/N0420F230 T904 RIBSO RIBSO3P
Aircraft CL60/M-SADE3FGHIJ3J4J7P2RWXY/HB1D1

Departure

Time 2026-04-23 19:40
Airport London City Airport (EGLC)

Arrival

Time 2026-04-23 20:45
Airport Hamburg Helmut Schmidt Airport (EDDH)
Time Latitude Longitude Altitude Speed Heading
2026-04-23 19:18 51.50513 0.04084 24 ft 0 kts 20°
2026-04-23 19:38 51.50519 0.04095 23 ft 2 kts 88°
2026-04-23 19:38 51.50518 0.04116 23 ft 0 kts 91°
2026-04-23 19:38 51.50517 0.04145 23 ft 6 kts 93°
2026-04-23 19:39 51.50501 0.04257 23 ft 13 kts 91°
2026-04-23 19:39 51.50498 0.04342 23 ft 7 kts 96°
2026-04-23 19:39 51.50490 0.04402 23 ft 6 kts 112°
2026-04-23 19:39 51.50509 0.04440 23 ft 7 kts 360°
2026-04-23 19:40 51.50550 0.04458 23 ft 7 kts 72°
2026-04-23 19:40 51.50550 0.04619 23 ft 38 kts 92°
2026-04-23 19:40 51.50518 0.05658 28 ft 140 kts 93°
2026-04-23 19:40 51.50450 0.07424 740 ft 169 kts 93°
2026-04-23 19:41 51.50384 0.08694 1457 ft 179 kts 94°
2026-04-23 19:41 51.50335 0.10701 2488 ft 187 kts 81°
2026-04-23 19:41 51.50849 0.12636 3206 ft 195 kts 56°
2026-04-23 19:41 51.52430 0.14351 3655 ft 229 kts 30°
2026-04-23 19:42 51.53868 0.15447 5230 ft 229 kts 28°
2026-04-23 19:42 51.55166 0.16622 6915 ft 219 kts 40°
2026-04-23 19:42 51.55856 0.17814 7655 ft 228 kts 58°
2026-04-23 19:42 51.56867 0.20924 9170 ft 247 kts 65°
2026-04-23 19:43 51.57617 0.23480 10348 ft 261 kts 65°
2026-04-23 19:43 51.58432 0.26127 11414 ft 278 kts 65°
2026-04-23 19:43 51.59328 0.29054 12168 ft 301 kts 64°
2026-04-23 19:43 51.60218 0.31988 13679 ft 296 kts 65°
2026-04-23 19:44 51.61110 0.34942 14961 ft 300 kts 65°
2026-04-23 19:44 51.61742 0.37043 15221 ft 322 kts 65°
2026-04-23 19:44 51.63125 0.41640 15895 ft 356 kts 65°
2026-04-23 19:44 51.64232 0.45318 16759 ft 367 kts 66°
2026-04-23 19:45 51.65300 0.49067 17938 ft 367 kts 69°
2026-04-23 19:45 51.66272 0.52830 19172 ft 364 kts 68°
2026-04-23 19:45 51.67372 0.56556 19855 ft 377 kts 65°
2026-04-23 19:45 51.68571 0.60453 20433 ft 392 kts 65°
2026-04-23 19:46 51.69789 0.64436 21200 ft 399 kts 65°
2026-04-23 19:46 51.70605 0.67117 21741 ft 403 kts 66°
2026-04-23 19:46 51.72261 0.72579 22812 ft 409 kts 67°
2026-04-23 19:46 51.73506 0.76708 23571 ft 413 kts 67°
2026-04-23 19:47 51.74329 0.79442 24028 ft 417 kts 67°
2026-04-23 19:47 51.76039 0.85150 24934 ft 423 kts 68°
2026-04-23 19:47 51.77318 0.89437 25588 ft 428 kts 68°
2026-04-23 19:47 51.78635 0.93870 26256 ft 432 kts 68°
2026-04-23 19:48 51.79941 0.98254 26956 ft 434 kts 68°
2026-04-23 19:48 51.80815 1.01206 27304 ft 438 kts 69°
2026-04-23 19:48 51.82581 1.07197 27934 ft 446 kts 69°
2026-04-23 19:48 51.83935 1.11803 28389 ft 451 kts 69°
2026-04-23 19:49 51.84833 1.14886 28727 ft 453 kts 69°
2026-04-23 19:49 51.86517 1.21032 29377 ft 457 kts 71°
2026-04-23 19:49 51.87815 1.25850 29814 ft 460 kts 71°
2026-04-23 19:49 51.89094 1.30603 30321 ft 461 kts 71°
2026-04-23 19:50 51.90382 1.35396 30926 ft 459 kts 71°
2026-04-23 19:50 51.91657 1.40147 31543 ft 457 kts 71°
2026-04-23 19:50 51.92908 1.44824 32132 ft 454 kts 71°
2026-04-23 19:50 51.93740 1.47938 32506 ft 453 kts 71°
2026-04-23 19:51 51.95408 1.54201 33204 ft 451 kts 71°
2026-04-23 19:51 51.96651 1.58876 33674 ft 450 kts 71°
2026-04-23 19:51 51.97879 1.63510 34143 ft 449 kts 71°
2026-04-23 19:51 51.98711 1.66646 34447 ft 449 kts 72°
2026-04-23 19:52 52.00070 1.71206 34832 ft 451 kts 67°
2026-04-23 19:52 52.02100 1.77255 35348 ft 451 kts 66°
2026-04-23 19:52 52.03096 1.80231 35608 ft 450 kts 66°
2026-04-23 19:52 52.05067 1.86136 36125 ft 448 kts 66°
2026-04-23 19:53 52.06056 1.89106 36381 ft 447 kts 66°
2026-04-23 19:53 52.07549 1.93598 36830 ft 446 kts 66°
2026-04-23 19:53 52.09506 1.99503 37442 ft 445 kts 66°
2026-04-23 19:53 52.10960 2.03901 37843 ft 444 kts 66°
2026-04-23 19:54 52.12413 2.08302 38230 ft 443 kts 66°
2026-04-23 19:54 52.13872 2.12733 38570 ft 443 kts 65°
2026-04-23 19:54 52.15334 2.17182 38897 ft 442 kts 65°
2026-04-23 19:54 52.16795 2.21637 39218 ft 442 kts 65°
2026-04-23 19:55 52.18236 2.26042 39375 ft 444 kts 65°
2026-04-23 19:55 52.20682 2.33538 39415 ft 453 kts 65°
2026-04-23 19:56 52.24184 2.44310 39408 ft 462 kts 65°
2026-04-23 19:56 52.27217 2.53677 39403 ft 467 kts 65°
2026-04-23 19:57 52.30244 2.63211 39414 ft 466 kts 69°
2026-04-23 19:57 52.31963 2.71385 39407 ft 461 kts 78°
2026-04-23 19:58 52.34029 2.83215 39407 ft 461 kts 77°
2026-04-23 19:58 52.35785 2.93292 39397 ft 461 kts 77°
2026-04-23 19:59 52.37498 3.03171 39407 ft 461 kts 78°
2026-04-23 19:59 52.39252 3.13333 39398 ft 462 kts 77°
2026-04-23 20:00 52.41637 3.23186 39403 ft 466 kts 68°
2026-04-23 20:00 52.44362 3.32828 39410 ft 465 kts 68°
2026-04-23 20:01 52.47098 3.42563 39405 ft 466 kts 68°
2026-04-23 20:01 52.49789 3.52183 39403 ft 466 kts 68°
2026-04-23 20:02 52.52062 3.60340 39405 ft 466 kts 68°
2026-04-23 20:02 52.55200 3.71649 39401 ft 466 kts 69°
2026-04-23 20:03 52.57898 3.81419 39405 ft 465 kts 69°
2026-04-23 20:03 52.60568 3.91129 39400 ft 465 kts 69°
2026-04-23 20:04 52.63246 4.00912 39401 ft 464 kts 69°
2026-04-23 20:04 52.65456 4.09016 39396 ft 464 kts 69°
2026-04-23 20:05 52.68124 4.18835 39400 ft 465 kts 68°
2026-04-23 20:05 52.71211 4.30253 39395 ft 465 kts 69°
2026-04-23 20:06 52.73403 4.38393 39396 ft 465 kts 68°
2026-04-23 20:06 52.76482 4.49876 39395 ft 464 kts 68°
2026-04-23 20:07 52.78670 4.58075 39391 ft 465 kts 68°
2026-04-23 20:07 52.81612 4.69560 39382 ft 464 kts 71°
2026-04-23 20:08 52.83544 4.77725 39392 ft 464 kts 71°
2026-04-23 20:08 52.86270 4.89257 39393 ft 463 kts 71°
2026-04-23 20:09 52.88597 4.99134 39397 ft 463 kts 71°
2026-04-23 20:09 52.90744 5.08275 39406 ft 462 kts 71°
2026-04-23 20:10 52.92768 5.16927 39395 ft 462 kts 71°
2026-04-23 20:10 52.95480 5.28558 39386 ft 462 kts 71°
2026-04-23 20:11 52.97702 5.38132 39374 ft 463 kts 71°
2026-04-23 20:11 52.99573 5.46226 39389 ft 461 kts 71°
2026-04-23 20:12 53.02260 5.57898 39364 ft 457 kts 70°
2026-04-23 20:12 53.04509 5.67715 39368 ft 456 kts 71°
2026-04-23 20:13 53.06762 5.77588 39371 ft 456 kts 71°
2026-04-23 20:13 53.08996 5.87430 39368 ft 457 kts 71°
2026-04-23 20:14 53.10790 5.95365 39367 ft 457 kts 71°
2026-04-23 20:14 53.13408 6.06996 39360 ft 457 kts 71°
2026-04-23 20:15 53.15283 6.15364 39360 ft 457 kts 71°
2026-04-23 20:15 53.17691 6.26163 39360 ft 457 kts 71°
2026-04-23 20:16 53.19988 6.36516 39361 ft 460 kts 71°
2026-04-23 20:16 53.22230 6.46672 39356 ft 462 kts 71°
2026-04-23 20:17 53.24462 6.56826 39352 ft 462 kts 70°
2026-04-23 20:17 53.26604 6.66621 39347 ft 462 kts 71°
2026-04-23 20:18 53.28817 6.76791 39349 ft 462 kts 71°
2026-04-23 20:18 53.31023 6.86975 39344 ft 463 kts 71°
2026-04-23 20:19 53.33214 6.97141 39336 ft 463 kts 71°
2026-04-23 20:19 53.34302 7.02209 39018 ft 468 kts 71°
2026-04-23 20:19 53.35403 7.07349 38422 ft 468 kts 71°
2026-04-23 20:19 53.36511 7.12537 37829 ft 466 kts 71°
2026-04-23 20:20 53.37611 7.17700 37248 ft 466 kts 71°
2026-04-23 20:20 53.38693 7.22791 36645 ft 466 kts 71°
2026-04-23 20:20 53.39782 7.27925 36038 ft 467 kts 71°
2026-04-23 20:20 53.40879 7.33113 35411 ft 469 kts 71°
2026-04-23 20:21 53.41973 7.38300 34779 ft 470 kts 71°
2026-04-23 20:21 53.43064 7.43485 34175 ft 472 kts 71°
2026-04-23 20:21 53.44161 7.48710 33516 ft 475 kts 71°
2026-04-23 20:21 53.45261 7.53963 32892 ft 476 kts 70°
2026-04-23 20:22 53.46357 7.59213 32241 ft 478 kts 70°
2026-04-23 20:22 53.47464 7.64532 31605 ft 477 kts 70°
2026-04-23 20:22 53.48487 7.69452 31009 ft 473 kts 71°
2026-04-23 20:22 53.49560 7.74629 30380 ft 469 kts 71°
2026-04-23 20:23 53.50628 7.79796 29753 ft 463 kts 71°
2026-04-23 20:23 53.51688 7.84938 29134 ft 459 kts 71°
2026-04-23 20:23 53.52736 7.90036 28511 ft 455 kts 70°
2026-04-23 20:23 53.53757 7.95017 27915 ft 451 kts 70°
2026-04-23 20:24 53.54788 8.00055 27304 ft 446 kts 70°
2026-04-23 20:24 53.55736 8.04701 26747 ft 442 kts 70°
2026-04-23 20:24 53.56615 8.09019 26228 ft 439 kts 70°
2026-04-23 20:24 53.57677 8.14244 25584 ft 436 kts 70°
2026-04-23 20:25 53.58659 8.19093 25005 ft 433 kts 70°
2026-04-23 20:25 53.59635 8.23924 24432 ft 430 kts 70°
2026-04-23 20:25 53.60603 8.28724 23845 ft 426 kts 69°
2026-04-23 20:25 53.61550 8.33431 23276 ft 423 kts 69°
2026-04-23 20:26 53.62497 8.38152 22715 ft 420 kts 69°
2026-04-23 20:26 53.63432 8.42818 22142 ft 416 kts 69°
2026-04-23 20:26 53.64365 8.47491 21589 ft 413 kts 69°
2026-04-23 20:26 53.65277 8.52072 21034 ft 409 kts 69°
2026-04-23 20:27 53.66185 8.56641 20488 ft 406 kts 69°
2026-04-23 20:27 53.67079 8.61147 19949 ft 402 kts 69°
2026-04-23 20:27 53.67951 8.65554 19423 ft 399 kts 70°
2026-04-23 20:27 53.68830 8.70005 18886 ft 396 kts 70°
2026-04-23 20:28 53.69708 8.74465 18354 ft 393 kts 69°
2026-04-23 20:28 53.70560 8.78804 17839 ft 389 kts 69°
2026-04-23 20:28 53.71373 8.82948 17352 ft 387 kts 69°
2026-04-23 20:28 53.72232 8.87338 16794 ft 383 kts 69°
2026-04-23 20:29 53.73073 8.91645 16315 ft 381 kts 69°
2026-04-23 20:29 53.73901 8.95896 15790 ft 378 kts 69°
2026-04-23 20:29 53.74450 8.98722 15452 ft 375 kts 69°
2026-04-23 20:29 53.75436 9.03802 14847 ft 372 kts 69°
2026-04-23 20:30 53.76025 9.06844 14473 ft 369 kts 69°
2026-04-23 20:30 53.77835 9.16233 13351 ft 350 kts 68°
2026-04-23 20:30 53.78582 9.20129 12892 ft 340 kts 68°
2026-04-23 20:31 53.79068 9.22664 12589 ft 335 kts 68°
2026-04-23 20:31 53.80003 9.27545 12004 ft 325 kts 68°
2026-04-23 20:31 53.80695 9.31172 11571 ft 318 kts 67°
2026-04-23 20:31 53.81323 9.34690 11295 ft 309 kts 70°
2026-04-23 20:32 53.81810 9.38386 10968 ft 330 kts 73°
2026-04-23 20:32 53.82271 9.42195 10665 ft 326 kts 73°
2026-04-23 20:32 53.82715 9.45899 10509 ft 315 kts 73°
2026-04-23 20:32 53.83150 9.49532 10335 ft 308 kts 73°
2026-04-23 20:33 53.83567 9.53019 10177 ft 298 kts 73°
2026-04-23 20:33 53.83976 9.56431 10018 ft 294 kts 73°
2026-04-23 20:33 53.84388 9.59864 9872 ft 292 kts 72°
2026-04-23 20:33 53.84790 9.63223 9715 ft 289 kts 72°
2026-04-23 20:34 53.85050 9.65409 9615 ft 285 kts 73°
2026-04-23 20:34 53.85562 9.69730 9429 ft 275 kts 73°
2026-04-23 20:34 53.85936 9.72884 9302 ft 267 kts 73°
2026-04-23 20:34 53.86297 9.75940 9161 ft 260 kts 72°
2026-04-23 20:35 53.86641 9.78959 9016 ft 258 kts 76°
2026-04-23 20:35 53.86626 9.81996 8893 ft 263 kts 91°
2026-04-23 20:35 53.86399 9.85097 8753 ft 263 kts 91°
2026-04-23 20:35 53.86174 9.88212 8609 ft 262 kts 91°
2026-04-23 20:36 53.85955 9.91273 8473 ft 261 kts 91°
2026-04-23 20:36 53.85808 9.93321 8384 ft 261 kts 91°
2026-04-23 20:36 53.85518 9.97367 8208 ft 261 kts 91°
2026-04-23 20:36 53.85297 10.00428 8083 ft 260 kts 91°
2026-04-23 20:37 53.85076 10.03503 7936 ft 260 kts 91°
2026-04-23 20:37 53.84930 10.05518 7851 ft 260 kts 91°
2026-04-23 20:37 53.84636 10.09593 7680 ft 260 kts 90°
2026-04-23 20:37 53.84423 10.12524 7550 ft 259 kts 91°
2026-04-23 20:38 53.84201 10.15568 7416 ft 259 kts 90°
2026-04-23 20:38 53.84178 10.18534 7279 ft 248 kts 71°
2026-04-23 20:38 53.84866 10.21104 7162 ft 234 kts 46°
2026-04-23 20:38 53.85877 10.23302 7022 ft 236 kts 51°
2026-04-23 20:39 53.86316 10.26027 6959 ft 250 kts 86°
2026-04-23 20:39 53.86046 10.27998 6980 ft 262 kts 110°
2026-04-23 20:39 53.84381 10.30941 6526 ft 270 kts 154°
2026-04-23 20:39 53.82560 10.31543 5840 ft 274 kts 189°
2026-04-23 20:40 53.80724 10.30728 5318 ft 267 kts 203°
2026-04-23 20:40 53.79017 10.29708 4933 ft 260 kts 206°
2026-04-23 20:40 53.77544 10.28084 4455 ft 247 kts 237°
2026-04-23 20:40 53.76459 10.25844 4070 ft 246 kts 234°
2026-04-23 20:41 53.75301 10.23720 3718 ft 243 kts 237°
2026-04-23 20:41 53.74230 10.21578 3383 ft 238 kts 237°
2026-04-23 20:41 53.73169 10.19438 3060 ft 235 kts 238°
2026-04-23 20:41 53.72136 10.17346 2745 ft 224 kts 238°
2026-04-23 20:42 53.71169 10.15381 2446 ft 212 kts 239°
2026-04-23 20:42 53.70245 10.13501 2170 ft 199 kts 239°
2026-04-23 20:42 53.69678 10.12350 1966 ft 190 kts 240°
2026-04-23 20:42 53.68600 10.10156 1652 ft 178 kts 240°
2026-04-23 20:43 53.68077 10.09077 1473 ft 176 kts 240°
2026-04-23 20:43 53.67080 10.06970 1132 ft 165 kts 238°
2026-04-23 20:43 53.66603 10.06044 1009 ft 150 kts 237°
2026-04-23 20:43 53.65948 10.04731 791 ft 141 kts 237°
2026-04-23 20:44 53.65334 10.03483 605 ft 128 kts 236°
2026-04-23 20:44 53.64558 10.01905 389 ft 129 kts 233°
2026-04-23 20:44 53.64170 10.01126 268 ft 134 kts 233°
2026-04-23 20:44 53.63572 9.99917 98 ft 134 kts 233°
2026-04-23 20:45 53.63042 9.98835 44 ft 104 kts 233°
2026-04-23 20:45 53.62545 9.97824 39 ft 55 kts 231°
2026-04-23 20:45 53.62362 9.97460 38 ft 26 kts 230°
2026-04-23 20:45 53.62272 9.97366 38 ft 21 kts 178°
2026-04-23 20:46 53.62177 9.97545 38 ft 18 kts 83°
2026-04-23 20:46 53.62255 9.97738 38 ft 20 kts 50°
2026-04-23 20:46 53.62321 9.97869 39 ft 23 kts 50°
2026-04-23 20:46 53.62421 9.98081 40 ft 22 kts 57°
2026-04-23 20:47 53.62480 9.98367 42 ft 19 kts 80°
2026-04-23 20:47 53.62510 9.98620 43 ft 24 kts 79°
2026-04-23 20:47 53.62530 9.98815 43 ft 26 kts 78°
2026-04-23 20:47 53.62573 9.99191 44 ft 23 kts 79°
2026-04-23 20:48 53.62583 9.99355 44 ft 6 kts 197°
2026-04-23 20:48 53.62545 9.99344 44 ft 4 kts 164°
2026-04-23 20:48 53.62525 9.99390 45 ft 4 kts 104°
2026-04-23 20:48 53.62536 9.99418 45 ft 6 kts 264°
2026-04-23 20:49 53.62536 9.99410 45 ft 0 kts 263°